Location: Bonn
(50.7330°N, 7.1000°E)
Time: 17:34:26
(UTC+02:00)

Cosmos 1933 Rocket - Visible Passes

Search period start: 17 September 2014 00:00
Search period end: 27 September 2014 00:00
Orbit: 608 x 632 km, 82.5° (Epoch: 17 September)

Date Brightness Start Highest point End Pass type
(mag) Time Alt. Az. Time Alt. Az. Time Alt. Az.
17 Sep 3.9 21:04:44 10° N 21:09:00 45° ENE 21:11:30 22° SE visible
17 Sep 5.8 22:43:13 10° NW 22:46:36 22° W 22:48:42 16° WSW visible
18 Sep 3.4 21:22:22 10° N 21:26:48 79° E 21:29:28 23° SSE visible
18 Sep 6.4 23:02:00 10° NW 23:04:02 13° W 23:06:02 10° WSW visible
19 Sep 5.1 20:03:06 10° NNE 20:06:10 18° ENE 20:09:13 10° ESE visible
19 Sep 4.0 21:40:09 10° NNW 21:44:30 60° W 21:47:30 19° S visible
20 Sep 4.5 20:20:18 10° N 20:24:10 29° ENE 20:27:59 10° SE visible
20 Sep 5.1 21:58:08 10° NNW 22:02:06 34° W 22:05:35 12° SSW visible
21 Sep 3.8 20:37:46 10° N 20:42:03 48° ENE 20:46:16 10° SSE visible
21 Sep 6.0 22:16:23 10° NW 22:19:36 20° W 22:22:48 10° SW visible
22 Sep 3.5 20:55:25 10° N 20:59:50 85° E 21:04:12 10° S visible
22 Sep 6.5 22:35:21 10° WNW 22:37:01 12° W 22:38:40 10° WSW visible
23 Sep 4.2 21:13:13 10° NNW 21:17:31 55° W 21:21:46 10° S visible
24 Sep 4.4 19:53:18 10° N 19:57:14 31° ENE 20:01:06 10° SE visible
24 Sep 5.3 21:31:13 10° NNW 21:35:06 31° W 21:38:57 10° SSW visible
25 Sep 3.7 20:10:47 10° N 20:15:06 52° ENE 20:19:20 10° SSE visible
25 Sep 6.2 21:49:32 10° NW 21:52:36 19° W 21:55:38 10° SW visible
26 Sep 3.5 20:28:27 10° N 20:32:52 89° W 20:37:13 10° S visible
26 Sep 6.7 22:08:47 10° WNW 22:09:59 11° W 22:11:11 10° W visible
